Matched Transactions 

topic0
0x8c5be1e5ebec7d5bd14f71427d1e84f3dd0314c0f7b2291e5b200ac8c7c3b925

A total of 256 transactions found

Txn Hash Method
Block
From
To
Value [Txn Fee]
0xdfd536f728cf7f711b0f346cf2c1f782e3b74725eb6ea9c36a863b1db68fb3ffApprove74409502021-05-15 20:58:46159 days 2 hrs agoSpaceMoon: Deployer 0x752ca325c80244bf25ed5776b583f6ca6cb1d9b20 BNB0.0002258
0x55546f41ed70b89b69cd6bf0b234b8b6ce9f18196b47bd2e4884ec54195c7264Add Liquidity ET...74409832021-05-15 21:00:31159 days 2 hrs agoSpaceMoon: Deployer PancakeSwap: Router v21 BNB0.00166113
0xbb8910f2a554bec885eb08d0a8cfa804c0923ddddc5c02124bba2c6d0f172bdfAdd Liquidity ET...74451742021-05-16 0:31:59158 days 23 hrs agoSpaceMoon: Deployer PancakeSwap: Router v20.317709425 BNB0.00135907
0x56431433d68e8641d5f6d998311fbcd0705909148493b99ca05d6f6b2004cc3aApprove74658892021-05-16 18:03:31158 days 5 hrs ago0x24d02cab9d2ed3bd662c26365535470c669806a8 0x752ca325c80244bf25ed5776b583f6ca6cb1d9b20 BNB0.0002258
0xa9daf87f57a798222fa74d2c2d24caeb7badf89cad401961c4b3950e8eb270efApprove74658892021-05-16 18:03:31158 days 5 hrs ago0x24d02cab9d2ed3bd662c26365535470c669806a8 0x752ca325c80244bf25ed5776b583f6ca6cb1d9b20 BNB0.0001298
0xfbc4878114b291302a474b743dc3c2d2e15fb3731bf35f20d40d9e725cdbe395Swap Exact Token...74659832021-05-16 18:08:43158 days 5 hrs ago0x24d02cab9d2ed3bd662c26365535470c669806a8 PancakeSwap: Router v20 BNB0.00111706
0xe98a5dc2849c7e1f89b0d5fea68c958df224b973631c6afc0c5a54a7aa3b2f89Approve74664402021-05-16 18:31:34158 days 5 hrs ago0x6d57d0b05b2d28f1e17cca85eb30b528969ee141 0x752ca325c80244bf25ed5776b583f6ca6cb1d9b20 BNB0.0002258
0x0386090b2ead1424b936d3917578a311f0ffdfb9a4dfe83cc35ff58377e9ad0dApprove74666132021-05-16 18:40:15158 days 4 hrs ago0x7de2367f38cd76f115edccb91f72b844aa6aac25 0x752ca325c80244bf25ed5776b583f6ca6cb1d9b20 BNB0.0002258
0x190e413c156b70e1e6c0450167c8862d561240677c1ce3a183efd2c05895d524Add Liquidity ET...74669062021-05-16 18:54:54158 days 4 hrs agoSpaceMoon: Deployer PancakeSwap: Router v20.5 BNB0.00130071
0x95f31c8018cb71fa7bba92d36c874c5ca0fa89ff25da48be3b5d7f6ec31e5db8Swap Exact Token...74670952021-05-16 19:04:21158 days 4 hrs ago0x6d57d0b05b2d28f1e17cca85eb30b528969ee141 PancakeSwap: Router v20 BNB0.001117
0x8161381cce8565b72cc08c8502a1990f66886ae5ecc72fc6e1df7fcd4017ec7cSwap Exact Token...74681992021-05-16 19:59:41158 days 3 hrs ago0x24d02cab9d2ed3bd662c26365535470c669806a8 PancakeSwap: Router v20 BNB0.00111706
0x77a426ed80b649ece3981f55285e11014656917e5a87d923f98afe230cf33c3eApprove74701352021-05-16 21:36:29158 days 1 hr ago0xb793d031140cb1535ea14e36ab511b828c5f83c5 0x752ca325c80244bf25ed5776b583f6ca6cb1d9b20 BNB0.0002258
0x49fc50bf89665e309804869f739848ad6afddcccbb09c2d47193bd6a6d9fcd5dApprove74707642021-05-16 22:07:57158 days 1 hr ago0xaaf974ade62e39b3f75f4ed26fc40286159c7c13 0x752ca325c80244bf25ed5776b583f6ca6cb1d9b20 BNB0.0002258
0xae2d466eeee284fcec90f7803c89472c047c0b2de271c7476284568931568d52Approve74707952021-05-16 22:09:30158 days 1 hr ago0x2baa73bc3f80f9035bc88db3ff9458ab19962c1f 0x752ca325c80244bf25ed5776b583f6ca6cb1d9b20 BNB0.0002258
0xcbf133fa914daa0d00cd45481374e1b34897a12b5cd83b3fc6137616ccf819c4Approve74708172021-05-16 22:10:36158 days 1 hr ago0xa7eac0ecc3505f2b32bf46d0ee87a998ef35996d 0x752ca325c80244bf25ed5776b583f6ca6cb1d9b20 BNB0.0002258
0x91698659a85834b5262de91aea0bd26285e0a891705ff6481cb1eb8aa4af2b11Approve74708232021-05-16 22:10:54158 days 1 hr ago0xb7f9de4df60a37b97495c7e94d0efefec8760034 0x752ca325c80244bf25ed5776b583f6ca6cb1d9b20 BNB0.00045161
0x55b4e81c4b297a43515b5f7c9970992d8d6605dc94b0ae799fda33caf31e085dApprove74708402021-05-16 22:11:45158 days 1 hr ago0x453d358c8a53c111d4e6829e264ded7715c7f61c 0x752ca325c80244bf25ed5776b583f6ca6cb1d9b20 BNB0.0002258
0x87f09405276731f1a6c6c617f962466d6e09ad066dda7c7cd4bcdccc82e1712fApprove74708432021-05-16 22:11:54158 days 1 hr ago0x69d9550727908a4511b4951c7dc7766f9167e9df 0x752ca325c80244bf25ed5776b583f6ca6cb1d9b20 BNB0.0002258
0xeeb809e06560779b6c445d977cc4dadc37c2d3d561d8efd7c0f37da723a79894Swap Exact Token...74708482021-05-16 22:12:09158 days 1 hr ago0x69d9550727908a4511b4951c7dc7766f9167e9df PancakeSwap: Router v20 BNB0.001117
0x312c2f27d22b9f0e3d2a06b0db5357e3ea42c08bb89204829ded236538c8c788Swap Exact Token...74709352021-05-16 22:16:30158 days 1 hr ago0x2baa73bc3f80f9035bc88db3ff9458ab19962c1f PancakeSwap: Router v20 BNB0.00111706
0xa6b242495337708106820171c5b83b48cc27f3f50a93c00ff16af393195106c6Approve74709872021-05-16 22:19:06158 days 1 hr ago0xf00b838f6d9fff9212587af4e8aa4917371cb7f4 0x752ca325c80244bf25ed5776b583f6ca6cb1d9b20 BNB0.0002258
0xc89e3ed1c8829f10b6bf6bb0b2bf7a71e4d165939f41d4cf25428c4133905ae6Swap Exact Token...74710032021-05-16 22:20:04158 days 1 hr ago0xaaf974ade62e39b3f75f4ed26fc40286159c7c13 PancakeSwap: Router v20 BNB0.00111706
0x61cc01da211356030ba9cdebadb684d419ce0dd6df828ac3936f47893f212acbApprove74710052021-05-16 22:20:10158 days 1 hr ago0x141ae9eaed45386e85fa4f8c88cb87714a7849b3 0x752ca325c80244bf25ed5776b583f6ca6cb1d9b20 BNB0.00045161
0xb6e4b67dfb4875da64cab29beb4f4e1b740d822639c1854eae8204813291c950Approve74710182021-05-16 22:20:57158 days 1 hr ago0x0597d35c8cd991c2e9ee16e8b7e5fce95a8414eb 0x752ca325c80244bf25ed5776b583f6ca6cb1d9b20 BNB0.0002258
0x5a2438cbce580da18df8e848c473c9f33f68f938d02de4994e729a5f907ebe28Approve74710362021-05-16 22:21:57158 days 1 hr ago0x48ba1c3e634414975f63e42dc7b08c4b25cfebe5 0x752ca325c80244bf25ed5776b583f6ca6cb1d9b20 BNB0.0002258
0x9e3d431155a10fc180e9c822d1f9d0928186887843481ce579516ce3ad4bba07Swap Exact Token...74710422021-05-16 22:22:17158 days 1 hr ago0x48ba1c3e634414975f63e42dc7b08c4b25cfebe5 PancakeSwap: Router v20 BNB0.001117
0x00babe757b5f84008104d753b55ca31812d87cc2694ea063d98755d95beeeb9cSwap Exact Token...74710662021-05-16 22:23:38158 days 1 hr ago0xf00b838f6d9fff9212587af4e8aa4917371cb7f4 PancakeSwap: Router v20 BNB0.001117
0x867239a59f9804f2dc70186d31a148acf977acbf3c9e1a1dde6103d0b394c29aSwap Exact Token...74712432021-05-16 22:32:44158 days 1 hr ago0x453d358c8a53c111d4e6829e264ded7715c7f61c PancakeSwap: Router v20 BNB0.001117
0x55a5ba0ce7438da1c70eaf24d7227049757131d21db1c7f8c1339ba91e098b1eApprove74717442021-05-16 22:57:47158 days 38 mins ago0x43e37d267cf9c8ccc9b3a7c91bc23f4a356ed4e5 0x752ca325c80244bf25ed5776b583f6ca6cb1d9b20 BNB0.0002258
0x008c9de0b8bb1ad47f1d59f9a37bd1e06574f0f558b8fa0afb2089f2259a3681Swap Exact Token...74717492021-05-16 22:58:02158 days 38 mins ago0x43e37d267cf9c8ccc9b3a7c91bc23f4a356ed4e5 PancakeSwap: Router v20 BNB0.00111688
0x4be4e473a856004056fdf36349ad6a0e727a44a2fc83c724bc9da1f058db7ef5Swap Exact Token...74719212021-05-16 23:07:08158 days 28 mins ago0xa7eac0ecc3505f2b32bf46d0ee87a998ef35996d PancakeSwap: Router v20 BNB0.001117
0xb79df2742a286c13e279ba618792e32823e03c860898f281da9e93b3466f6556Approve74722992021-05-16 23:26:02158 days 10 mins ago0x35cb0d64a7b85fecf283caf1d9671c5f2b49c68a 0x752ca325c80244bf25ed5776b583f6ca6cb1d9b20 BNB0.0002258
0xafa745318ffd92ad7574140f6b8c9584cfd112f776375140b98d0ea32a4ab544Approve74731942021-05-17 0:11:46157 days 23 hrs ago0xc385b29687dbb285d1e9761b4ed94a933da4f89c 0x752ca325c80244bf25ed5776b583f6ca6cb1d9b20 BNB0.00027096
0x52a09402b3c1aaec967d01ea06b377119e0270c1b71b11f345f7b13fbfd308a0Swap Exact Token...74732022021-05-17 0:12:10157 days 23 hrs ago0xc385b29687dbb285d1e9761b4ed94a933da4f89c PancakeSwap: Router v20 BNB0.00161356
0x3a36645f9fe69f8aef94f166edb9cca0bef41b0b6078bc8e3e1c9e104941e6eeSwap Exact Token...74736832021-05-17 0:36:13157 days 22 hrs ago0xc385b29687dbb285d1e9761b4ed94a933da4f89c PancakeSwap: Router v20 BNB0.00161356
0x74c3b5f6b0615f1e8858f739a8c8ebcdab966ed65b90dd14e3b869a3e0b30433Approve74736992021-05-17 0:37:01157 days 22 hrs ago0x8f9f43d7a21078a46cc470d871ec5a6574bb968b 0x752ca325c80244bf25ed5776b583f6ca6cb1d9b20 BNB0.0002258
0xb22dfc1040ce824436066afd7e5169599c218847f62ce1fa1dad29a4bfb5b937Swap Exact Token...74737052021-05-17 0:37:19157 days 22 hrs ago0x8f9f43d7a21078a46cc470d871ec5a6574bb968b PancakeSwap: Router v20 BNB0.00141976
0x7b4261f187744206d7d4675ee2e6911260490cea99c2dd057b3c771cfc6549f1Swap Exact Token...74737422021-05-17 0:39:10157 days 22 hrs ago0x7de2367f38cd76f115edccb91f72b844aa6aac25 PancakeSwap: Router v20 BNB0.00111706
0x9c30641860105e8e868bbdbe850541b39fd60d9b70fdd0c8b715f4871b4b3da5Swap Exact Token...74739002021-05-17 0:47:10157 days 22 hrs ago0x69d9550727908a4511b4951c7dc7766f9167e9df PancakeSwap: Router v20 BNB0.00111706
0x5f019dcef469b97a14efd3314ec56ee757d7943da682209d90f52681184b8cbcApprove74775412021-05-17 3:50:17157 days 19 hrs ago0xc8d3a5d4c7fd9c69cb2ffe6bdf307f500e57ab0a 0x752ca325c80244bf25ed5776b583f6ca6cb1d9b20 BNB0.0002258
0x08c62c96ff17160e23c30a2c38174620a818efe62fe4ecf59e294d874b07d483Swap Exact Token...74775522021-05-17 3:50:50157 days 19 hrs ago0xc8d3a5d4c7fd9c69cb2ffe6bdf307f500e57ab0a PancakeSwap: Router v20 BNB0.00111694
0x395a49028e78c1d9f5f859b0674747a63a29cc63e8d8b1a8f5fda1f79488c749Approve74839252021-05-17 9:12:47157 days 14 hrs ago0xae62e53bcc69c8b6eac7e072376d20bdcc671f2a 0x752ca325c80244bf25ed5776b583f6ca6cb1d9b20 BNB0.0002258
0xa7d63372abf9bf7642bb738368ab944efce70ad048b8d3228dd90fc75c5be588Approve74863302021-05-17 11:14:58157 days 12 hrs ago0xb82fd4eb01dd5166f61b4beaaab4d92b9cbea846 0x752ca325c80244bf25ed5776b583f6ca6cb1d9b20 BNB0.0002258
0x9d792375de232ddfb543819f0869641ad9735bad66b0712f13f2363d5f15bf70Approve74863442021-05-17 11:15:40157 days 12 hrs ago0xb82fd4eb01dd5166f61b4beaaab4d92b9cbea846 0x752ca325c80244bf25ed5776b583f6ca6cb1d9b20 BNB0.0001298
0x2061dda7d833bc7c1c455aaa2eea81048c5d1a171f2abe7e2661ea8861ea9aacSwap Exact Token...74863452021-05-17 11:15:43157 days 12 hrs ago0xb82fd4eb01dd5166f61b4beaaab4d92b9cbea846 PancakeSwap: Router v20 BNB0.001117
0x60edc806557e1472e6a8703a833fe1c864d38b6c94a7bc7e3693aba5798dd5ddSwap Exact Token...74868402021-05-17 11:40:37157 days 11 hrs ago0xae62e53bcc69c8b6eac7e072376d20bdcc671f2a PancakeSwap: Router v20 BNB0.00111706
0x4572a733ade33d8645fa178b727723fa8338a2f2d6eda05cd009b198d8497017Approve74870262021-05-17 11:50:15157 days 11 hrs ago0x3eb19140ddaff1625f345f67f565657253aa44ea 0x752ca325c80244bf25ed5776b583f6ca6cb1d9b20 BNB0.0002258
0x26af7768a4e1a0f96090454a9d34e98531d6aa01f9cfe7d909d186b44bd21687Approve74887702021-05-17 13:21:28157 days 10 hrs ago0x8755a36f3b3a01747e97fa29f0e0fabaaaee2cb4 0x752ca325c80244bf25ed5776b583f6ca6cb1d9b20 BNB0.0002258
0x1df914cc3a9f3d647b02dff47489ed4901ed134924a686805e6926732f1d35d6Swap Exact Token...74889002021-05-17 13:27:58157 days 10 hrs ago0x8755a36f3b3a01747e97fa29f0e0fabaaaee2cb4 PancakeSwap: Router v20 BNB0.001117
0xc7aad78611938117cf5833aa400622ef295401be1258f9957e0d72308b87ed48Approve74906622021-05-17 14:56:07157 days 8 hrs ago0x6518eb74365dcdd23c09aa8f976b7fdc3d08fbf3 0x752ca325c80244bf25ed5776b583f6ca6cb1d9b20 BNB0.0002258
Show Records